Temperature
1 2 2 2 3 3 3 3 3 3 3 3 3 2 2 2 2 3 3 3 3 4 4 5 5 6 6 6 6 6 6 6 6 6 6 6 6 6 6 6 6 5 5 5
1 2 2 2 2 3 3 3 3 3 3 2 2 2 1 2 2 1 1 2 2 3 4 4 4 5 5 5 5 5 5 5 5 5 5 5 5 5 5 5 5 5 5 5
-0 1 1 1 1 2 2 2 2 3 2 1 1 1 1 1 1 1 1 1 1 2 3 3 3 4 4 4 4 4 5 5 5 5 5 5 5 5 5 5 4 4 4 4
-1 -0 1 1 0 1 1 1 1 1 1 0 -0 0 1 1 1 0 0 0 1 2 2 2 3 3 3 3 3 4 4 4 4 4 4 4 4 4 4 4 4 4 3 3
-2 -1 -0 0 -0 -1 0 -0 -1 -0 -0 -1 -0 -0 -0 0 0 0 0 0 1 1 1 2 2 2 3 3 3 3 3 3 3 3 3 3 3 3 3 3 3 3 3 3
-2 -1 -0 -0 -1 -1 -1 -1 -1 -1 -1 -1 -1 -1 -1 -1 -0 -0 0 0 0 1 1 1 1 2 2 2 2 2 2 2 2 2 2 2 2 2 2 2 2 2 2 2
-3 -2 -2 -2 -2 -1 -0 -1 -2 -2 -2 -2 -2 -2 -2 -1 -1 -1 -1 -0 -0 -0 0 0 1 1 1 1 2 2 2 1 1 1 1 1 2 1 1 1 1 1 1 1
-3 -3 -2 -3 -3 -2 -2 -2 -2 -2 -2 -2 -2 -2 -2 -2 -2 -2 -1 -1 -1 -1 -1 -0 -0 0 0 1 1 1 1 1 1 1 1 1 1 1 1 1 0 0 0 0
-4 -3 -4 -3 -3 -3 -3 -3 -3 -3 -2 -3 -3 -3 -3 -3 -2 -2 -2 -2 -2 -1 -1 -1 -1 -1 -0 -0 -0 0 0 0 0 0 0 0 0 0 -0 -0 -0 -0 -0 -0
-5 -5 -4 -4 -4 -3 -3 -3 -3 -3 -3 -3 -3 -3 -3 -3 -3 -3 -3 -2 -2 -2 -2 -2 -1 -1 -1 -1 -1 -1 -1 -0 -0 -0 -0 -1 -1 -1 -1 -1 -1 -1 -1 -1
-5 -5 -5 -4 -4 -4 -4 -4 -3 -3 -3 -3 -3 -4 -4 -4 -3 -3 -3 -3 -3 -3 -2 -2 -2 -2 -2 -2 -1 -1 -1 -1 -1 -1 -1 -1 -1 -2 -2 -2 -2 -2 -2 -2
-5 -5 -6 -5 -4 -4 -4 -4 -4 -4 -4 -4 -4 -4 -4 -4 -4 -4 -4 -4 -3 -3 -3 -3 -3 -2 -2 -2 -2 -2 -2 -2 -2 -2 -2 -2 -2 -2 -2 -2 -2 -2 -2 -2
-5 -4 -5 -5 -5 -5 -5 -5 -5 -4 -4 -4 -4 -4 -4 -4 -4 -4 -4 -4 -4 -3 -3 -3 -3 -3 -3 -3 -3 -3 -2 -2 -2 -2 -2 -2 -3 -3 -3 -3 -3 -3 -3 -3
-5 -5 -5 -5 -5 -5 -5 -5 -5 -5 -5 -5 -5 -5 -5 -5 -5 -4 -4 -4 -4 -4 -4 -4 -4 -3 -3 -3 -3 -3 -3 -3 -3 -3 -3 -3 -3 -3 -3 -3 -3 -3 -3 -3
-5 -6 -6 -6 -6 -6 -6 -6 -5 -5 -5 -5 -5 -5 -5 -5 -5 -5 -5 -5 -5 -5 -4 -4 -4 -4 -4 -4 -4 -4 -3 -3 -3 -3 -4 -4 -4 -4 -4 -4 -4 -4 -4 -4
-6 -6 -6 -6 -6 -6 -6 -6 -6 -6 -6 -6 -6 -6 -6 -6 -6 -5 -5 -5 -5 -5 -5 -5 -4 -4 -4 -4 -4 -4 -4 -4 -4 -4 -4 -4 -4 -4 -5 -5 -4 -5 -5 -5
-7 -7 -6 -6 -6 -6 -6 -6 -6 -6 -6 -6 -6 -6 -6 -6 -6 -6 -6 -6 -6 -5 -5 -5 -5 -5 -5 -5 -5 -5 -4 -4 -5 -5 -5 -5 -5 -5 -5 -5 -5 -5 -5 -5
-6 -6 -6 -6 -6 -6 -6 -6 -6 -6 -6 -6 -6 -7 -7 -7 -7 -7 -6 -6 -6 -6 -6 -6 -6 -5 -5 -5 -5 -5 -5 -5 -5 -5 -5 -5 -6 -6 -6 -6 -6 -6 -6 -6
-6 -6 -6 -6 -6 -6 -6 -6 -6 -6 -7 -7 -7 -7 -7 -7 -7 -7 -7 -7 -7 -6 -6 -6 -6 -6 -6 -6 -6 -6 -5 -6 -6 -6 -6 -6 -6 -6 -6 -6 -6 -6 -6 -6
-6 -6 -6 -6 -6 -6 -6 -6 -7 -7 -7 -7 -7 -7 -7 -7 -7 -7 -7 -7 -7 -7 -7 -7 -7 -6 -6 -6 -6 -6 -6 -6 -6 -6 -6 -6 -6 -6 -6 -7 -7 -7 -7 -7
-6 -6 -6 -6 -6 -6 -7 -7 -7 -7 -7 -7 -7 -7 -8 -8 -8 -8 -8 -7 -7 -7 -7 -7 -7 -7 -7 -6 -6 -6 -6 -6 -6 -7 -7 -7 -7 -7 -7 -7 -7 -7 -7 -7
-6 -6 -7 -7 -7 -7 -7 -7 -7 -7 -8 -8 -8 -8 -8 -8 -8 -8 -8 -8 -8 -7 -7 -7 -7 -7 -7 -7 -7 -7 -7 -7 -7 -7 -7 -7 -7 -7 -7 -7 -7 -7 -7 -7
-7 -7 -7 -7 -7 -7 -7 -8 -8 -8 -8 -8 -8 -8 -8 -8 -8 -8 -8 -8 -8 -8 -8 -8 -7 -7 -7 -7 -7 -7 -7 -7 -7 -7 -7 -7 -8 -8 -8 -8 -8 -8 -8 -7
-7 -7 -7 -8 -8 -8 -8 -8 -8 -8 -8 -8 -8 -9 -9 -9 -8 -8 -8 -8 -8 -8 -8 -8 -8 -8 -8 -8 -8 -7 -8 -8 -8 -8 -8 -8 -8 -8 -8 -8 -8 -8 -8 -8
-8 -8 -8 -8 -8 -8 -8 -8 -8 -8 -8 -9 -9 -9 -9 -9 -9 -9 -9 -9 -8 -8 -8 -8 -8 -8 -8 -8 -8 -8 -8 -8 -8 -8 -8 -8 -8 -8 -8 -8 -8 -8 -8 -8
-8 -8 -8 -8 -8 -8 -9 -9 -9 -9 -9 -9 -9 -9 -9 -9 -9 -9 -9 -9 -9 -9 -8 -8 -8 -8 -8 -8 -8 -8 -8 -8 -8 -8 -8 -8 -8 -8 -8 -8 -8 -8 -8 -8
-8 -8 -8 -9 -9 -9 -9 -9 -9 -9 -9 -9 -9 -9 -9 -9 -9 -9 -9 -9 -9 -9 -9 -9 -9 -9 -9 -9 -9 -9 -9 -9 -9 -9 -8 -8 -8 -8 -8 -8 -8 -8 -8 -8
Wind_Speed
3 4 2 4 5 5 6 6 6 5 5 6 4 3 1 1 2 3 3 4 3 2 2 2 2 2 2 2 3 4 5 5 4 4 4 4 4 4 4 4 4 4 3 3
2 3 3 4 6 7 7 5 5 4 6 4 1 1 1 1 3 3 2 3 3 2 2 2 2 2 2 2 3 4 5 5 4 4 4 4 4 4 4 3 3 3 3 3
2 3 0 4 6 6 4 3 4 6 6 1 1 1 2 2 3 2 1 1 2 1 1 1 1 2 2 2 3 4 5 4 4 4 4 4 4 4 4 3 3 3 3 3
0 2 4 4 1 2 3 1 1 1 1 1 1 1 1 2 2 2 1 1 1 1 1 1 2 2 2 3 4 4 4 4 4 4 4 4 4 4 3 3 3 2 2 2
2 2 3 4 2 1 2 2 1 1 1 0 1 3 3 2 2 1 1 1 1 1 2 2 2 3 3 4 4 4 4 3 3 4 4 4 4 3 2 3 2 2 2 1
2 2 4 3 3 3 1 2 2 0 2 2 1 1 3 2 2 2 2 2 2 2 3 3 2 3 4 4 4 3 3 2 3 3 4 4 3 2 2 2 2 2 1 1
2 3 4 4 5 1 3 4 2 0 1 1 1 3 2 1 1 2 2 2 3 3 3 2 2 4 5 4 3 2 2 3 3 3 3 3 3 2 3 3 3 2 1 1
2 2 5 4 2 2 3 1 1 0 0 0 1 1 1 2 2 2 2 2 3 3 3 2 2 4 4 3 2 2 3 4 4 3 3 3 3 3 3 3 2 1 1 1
3 3 2 1 0 1 0 1 2 1 1 1 1 1 1 1 1 2 2 2 2 3 3 3 3 3 4 2 2 3 4 4 3 4 3 3 3 3 2 2 1 0 0 0
2 3 2 2 2 3 2 1 2 1 1 2 2 2 1 1 1 2 2 2 2 3 3 3 3 3 3 2 3 3 4 3 3 3 3 3 2 2 1 1 0 0 0 1
2 3 3 3 2 2 2 2 2 2 0 1 3 2 2 2 1 1 1 1 2 2 3 2 3 3 3 2 3 4 3 3 3 3 3 2 2 1 1 0 1 1 1 2
5 4 3 3 2 1 1 2 1 1 1 1 2 2 2 2 1 1 1 2 2 2 3 2 3 3 2 2 3 3 3 3 2 2 2 2 2 2 4 3 3 3 3 2
4 2 2 2 1 1 1 1 1 1 0 0 0 1 2 2 1 2 2 2 2 2 2 2 2 2 2 2 2 3 3 2 2 2 2 1 1 1 2 3 5 5 5 5
1 0 0 1 1 1 1 1 2 2 1 1 1 1 2 2 2 2 1 1 2 2 2 2 2 2 1 2 2 3 2 2 2 1 1 1 1 1 0 1 2 3 4 6
2 1 2 1 0 1 1 1 2 2 2 2 2 1 2 2 2 1 1 2 3 3 2 2 2 1 1 2 2 2 2 2 2 1 1 1 1 1 1 1 1 2 2 3
1 0 1 1 0 1 1 1 1 0 0 0 1 1 2 2 2 2 2 2 3 2 1 1 1 0 1 2 2 2 1 2 2 1 1 1 1 1 0 1 1 2 2 2
1 1 1 1 1 1 1 1 1 1 1 0 1 1 2 3 3 2 2 2 2 2 1 1 0 0 1 1 2 1 1 1 2 1 1 1 0 0 0 1 1 2 2 3
3 3 3 3 3 2 1 1 1 1 1 1 2 2 2 3 2 1 1 2 3 2 1 0 0 1 1 1 1 1 1 1 1 1 1 0 0 0 0 1 1 2 2 3
2 2 2 2 2 2 2 1 1 1 0 1 2 2 2 2 2 1 1 2 2 1 1 0 0 1 1 1 1 2 1 1 1 1 0 0 1 1 1 1 1 2 2 2
1 1 1 1 1 1 1 1 0 0 1 1 2 2 1 1 1 2 2 1 1 1 1 0 0 1 1 1 1 1 1 1 1 0 0 0 0 1 1 1 1 2 2 2
1 1 1 1 1 1 1 1 1 1 0 1 2 2 1 1 1 1 1 0 2 1 1 1 0 0 1 1 1 1 1 1 1 1 0 0 0 1 1 2 2 2 2 2
2 1 1 1 1 1 1 0 1 1 1 1 1 1 1 0 0 0 1 2 2 2 1 1 1 1 1 1 1 2 1 1 1 1 1 1 1 1 2 2 2 3 3 3
2 2 2 2 2 1 1 0 1 1 2 1 1 2 2 1 1 1 1 1 1 2 1 1 2 2 1 1 1 2 2 1 1 1 1 1 2 2 2 2 3 3 3 3
3 2 2 1 1 1 1 1 1 1 1 1 1 1 1 1 1 1 2 3 3 3 1 2 2 2 1 1 1 1 1 1 1 1 1 1 2 2 2 2 3 3 3 3
3 2 2 2 2 2 2 2 1 1 1 1 1 1 1 2 2 2 1 2 3 3 2 2 2 2 1 1 1 1 1 2 2 2 2 2 2 2 2 3 3 3 3 3
3 3 3 3 3 2 2 2 2 1 1 1 1 1 1 1 1 1 1 2 2 2 1 1 1 1 0 0 1 1 1 2 2 2 2 2 2 3 3 3 3 3 3 3
2 2 2 2 2 2 2 2 2 2 2 2 2 2 1 1 1 1 1 1 1 1 1 1 1 1 1 1 1 1 1 2 2 2 2 2 2 3 3 3 3 3 3 3
Wind_Direction
254 257 223 234 230 205 201 203 202 224 229 251 252 243 235 127 94 81 67 55 67 78 81 87 86 87 95 108 126 133 134 137 146 150 147 145 148 152 152 155 161 163 167 174
300 272 231 247 244 225 228 225 215 225 257 274 261 114 108 130 111 94 70 47 46 61 70 83 97 97 93 102 113 125 131 135 135 133 131 135 142 145 146 149 152 154 168 176
285 309 298 248 231 207 210 222 204 223 237 242 328 268 194 155 122 118 101 59 39 62 77 99 111 113 108 104 105 112 119 123 125 127 126 125 132 133 139 151 153 163 174 178
238 59 217 240 307 205 186 248 273 219 188 190 200 316 38 113 119 115 99 69 38 69 86 73 88 89 88 94 103 109 110 113 119 121 121 117 117 127 138 148 158 169 177 189
148 193 272 304 340 23 186 256 315 215 166 121 85 55 20 25 67 106 125 118 83 91 102 81 83 96 95 90 97 105 109 111 115 122 122 121 123 128 141 142 143 152 169 168
148 173 229 264 308 305 122 272 332 342 184 192 114 172 256 357 33 52 63 76 78 72 83 84 81 98 100 93 91 98 106 116 112 117 124 128 134 131 126 130 127 121 99 86
185 209 261 290 304 343 163 242 317 319 199 198 203 223 218 63 54 84 85 81 85 80 77 75 92 104 102 95 86 79 88 95 96 98 112 117 113 115 116 108 100 97 85 35
171 197 259 325 20 157 225 289 308 272 238 117 116 111 111 98 94 92 87 83 85 86 70 50 77 106 103 95 79 81 91 92 90 87 90 94 99 97 101 103 100 86 77 25
197 217 274 322 228 292 268 232 292 270 242 139 119 121 111 100 101 105 111 99 91 99 79 49 55 96 105 86 81 88 91 90 90 85 80 87 100 102 100 97 110 117 95 347
247 271 286 327 343 350 344 290 297 282 205 140 148 152 130 116 105 93 91 98 93 94 86 62 51 67 86 85 81 92 96 90 87 89 78 66 67 87 108 124 127 32 342 312
252 277 319 328 327 321 337 353 350 344 346 147 144 155 155 145 136 116 99 87 97 102 98 83 69 66 67 74 94 97 97 90 77 78 90 80 59 55 49 248 231 220 231 244
240 237 219 268 304 348 27 351 327 348 7 36 138 159 161 166 161 134 112 98 95 90 96 92 86 75 58 61 96 108 99 89 80 82 82 83 75 39 27 26 22 13 358 341
240 252 219 263 344 20 9 337 350 9 67 47 48 158 161 154 140 121 111 106 110 109 110 107 96 81 56 58 85 104 108 99 85 75 75 76 70 61 25 16 25 24 17 2
266 240 276 283 281 332 355 9 36 42 38 56 68 103 133 132 123 115 118 118 112 107 105 104 97 81 54 71 89 98 102 98 90 83 76 68 66 52 24 358 351 349 354 359
297 229 218 234 5 10 27 58 62 38 32 35 57 92 127 134 136 137 127 117 107 98 93 94 95 74 49 78 95 103 106 108 101 95 82 72 61 59 46 357 337 335 340 348
281 335 127 115 301 326 9 60 103 331 345 54 81 109 129 133 123 108 99 111 117 110 99 90 80 11 56 92 100 100 107 101 90 96 95 75 60 60 32 356 348 342 337 336
181 223 216 225 252 280 291 264 224 231 228 184 183 144 126 120 109 94 74 82 102 99 91 121 227 351 80 109 116 117 111 108 77 74 82 82 74 46 340 326 325 326 325 333
217 220 218 213 218 233 263 274 232 214 214 192 142 126 129 140 149 148 111 89 82 58 27 6 42 80 86 92 110 124 123 120 109 106 85 48 29 357 321 312 310 311 315 323
208 211 220 218 217 213 229 253 258 230 173 133 131 141 153 161 159 144 112 100 100 36 330 311 150 81 89 115 110 122 127 120 98 81 88 13 357 352 341 312 308 307 310 317
195 192 181 199 212 200 221 250 230 115 96 126 128 124 125 144 144 133 112 105 252 246 248 249 89 125 167 170 130 128 141 141 137 127 84 28 333 327 325 317 309 308 308 306
211 210 198 209 258 268 231 219 179 170 143 131 148 165 183 188 141 134 130 266 303 262 232 249 225 182 173 172 144 131 139 149 161 178 204 244 291 304 306 308 306 304 302 303
227 222 230 235 239 279 285 219 178 175 159 145 160 164 154 177 175 104 250 237 260 270 274 232 227 223 203 168 140 147 159 168 184 197 209 230 253 275 288 295 296 297 298 296
228 230 229 238 240 250 287 256 196 188 194 199 197 199 202 219 210 201 271 272 259 273 280 234 238 239 224 168 150 163 178 190 203 217 229 242 255 265 275 285 288 290 289 287
226 227 228 239 219 203 255 269 242 214 206 215 224 219 208 223 268 260 253 271 281 288 285 263 267 265 262 134 148 169 194 209 214 224 241 252 260 269 276 279 282 285 283 284
218 222 222 204 209 230 235 227 206 220 215 235 259 258 247 230 234 256 268 266 268 286 299 287 280 287 352 108 161 193 213 219 218 221 235 245 255 263 269 272 275 277 279 284
216 219 224 225 224 224 216 202 205 212 207 238 271 270 267 257 244 250 261 265 264 280 299 307 300 291 336 209 216 223 229 246 263 257 244 249 254 258 266 272 275 279 287 292
213 212 215 239 238 216 206 201 204 216 217 218 242 254 245 246 248 250 257 268 277 284 282 280 265 229 223 222 219 229 241 245 247 249 252 253 255 258 268 275 286 293 294 295
Height
1471 1468 1468 1468 1466 1466 1468 1469 1470 1467 1467 1465 1465 1466 1466 1465 1465 1466 1466 1467 1468 1469 1470 1471 1473 1475 1477 1479 1481 1484 1486 1488 1491 1493 1495 1497 1499 1501 1503 1505 1506 1507 1508 1508
1471 1466 1467 1467 1465 1464 1464 1465 1466 1466 1467 1464 1464 1465 1465 1465 1465 1466 1466 1467 1467 1468 1469 1471 1473 1474 1476 1478 1480 1482 1484 1486 1488 1490 1492 1494 1496 1498 1500 1501 1502 1503 1504 1504
1475 1470 1467 1469 1466 1464 1464 1464 1464 1464 1465 1465 1465 1465 1465 1465 1465 1466 1467 1467 1467 1468 1469 1470 1472 1473 1475 1477 1478 1480 1482 1484 1486 1487 1489 1491 1493 1495 1496 1498 1499 1499 1500 1500
1478 1475 1473 1468 1465 1464 1464 1465 1465 1464 1464 1465 1465 1465 1466 1466 1466 1466 1467 1467 1467 1468 1469 1470 1472 1473 1475 1476 1477 1479 1481 1482 1484 1485 1487 1488 1490 1492 1493 1494 1495 1496 1496 1497
1481 1478 1473 1468 1466 1466 1466 1466 1466 1465 1465 1465 1465 1465 1466 1467 1467 1467 1467 1467 1468 1468 1469 1470 1471 1472 1474 1475 1477 1478 1479 1481 1482 1483 1485 1486 1488 1489 1490 1491 1492 1493 1493 1494
1481 1477 1474 1469 1468 1466 1467 1468 1466 1464 1464 1464 1464 1468 1467 1466 1466 1467 1467 1467 1467 1468 1469 1470 1471 1472 1473 1474 1476 1477 1478 1480 1481 1482 1483 1484 1485 1487 1488 1489 1489 1490 1490 1491
1480 1480 1474 1471 1467 1466 1470 1467 1466 1465 1464 1464 1464 1465 1465 1465 1466 1466 1467 1467 1467 1467 1468 1469 1470 1471 1472 1473 1475 1476 1477 1479 1480 1481 1482 1483 1484 1484 1485 1486 1487 1488 1488 1488
1481 1480 1477 1470 1467 1469 1468 1466 1465 1464 1464 1464 1464 1464 1464 1465 1465 1466 1466 1467 1467 1467 1468 1469 1470 1471 1471 1473 1474 1475 1477 1478 1479 1480 1480 1481 1482 1483 1483 1484 1485 1485 1485 1485
1478 1477 1473 1469 1468 1467 1466 1465 1464 1463 1463 1463 1463 1463 1463 1464 1465 1465 1466 1466 1467 1467 1467 1468 1469 1470 1471 1472 1473 1475 1476 1477 1478 1479 1479 1480 1480 1481 1482 1482 1483 1483 1483 1483
1476 1473 1471 1469 1467 1466 1465 1464 1463 1463 1463 1463 1463 1463 1463 1464 1464 1465 1465 1466 1466 1467 1467 1468 1469 1470 1471 1472 1473 1474 1475 1476 1477 1477 1478 1479 1479 1480 1480 1480 1481 1481 1481 1481
1474 1472 1469 1468 1467 1466 1465 1464 1463 1462 1462 1462 1462 1462 1463 1463 1464 1464 1465 1465 1466 1467 1467 1467 1468 1469 1470 1471 1472 1473 1474 1475 1476 1476 1477 1478 1478 1478 1479 1479 1479 1479 1479 1479
1472 1469 1469 1467 1466 1465 1464 1463 1463 1462 1461 1462 1462 1462 1462 1463 1463 1464 1464 1465 1465 1466 1466 1467 1468 1469 1470 1471 1472 1472 1473 1474 1474 1475 1476 1476 1477 1477 1477 1477 1477 1477 1477 1477
1468 1467 1467 1466 1466 1465 1464 1463 1463 1462 1461 1461 1461 1462 1462 1462 1462 1463 1464 1464 1465 1465 1466 1467 1467 1468 1469 1470 1471 1471 1472 1473 1473 1474 1474 1474 1475 1475 1475 1476 1475 1475 1475 1475
1467 1466 1465 1465 1465 1464 1463 1463 1462 1462 1461 1461 1461 1461 1461 1461 1462 1462 1463 1463 1464 1465 1465 1466 1467 1467 1468 1469 1470 1470 1471 1471 1472 1472 1473 1473 1473 1474 1474 1473 1473 1473 1473 1472
1465 1465 1465 1464 1463 1463 1463 1462 1461 1461 1461 1460 1460 1460 1460 1461 1461 1462 1462 1463 1464 1464 1465 1465 1466 1466 1467 1468 1468 1469 1469 1470 1470 1471 1471 1472 1472 1472 1472 1472 1471 1471 1470 1470
1464 1464 1464 1463 1462 1462 1462 1462 1461 1460 1460 1460 1460 1460 1460 1460 1461 1461 1462 1462 1462 1463 1463 1464 1465 1465 1466 1466 1467 1468 1468 1468 1469 1469 1470 1470 1470 1470 1470 1470 1470 1469 1468 1468
1463 1462 1462 1462 1462 1461 1461 1461 1460 1460 1460 1459 1459 1459 1459 1459 1459 1460 1461 1461 1462 1462 1463 1463 1464 1464 1465 1465 1466 1466 1466 1467 1467 1468 1468 1469 1469 1469 1468 1468 1468 1467 1467 1467
1461 1461 1461 1461 1461 1460 1460 1460 1460 1459 1459 1459 1459 1459 1458 1458 1458 1459 1459 1460 1460 1461 1461 1462 1463 1463 1464 1464 1465 1465 1465 1466 1466 1467 1467 1467 1467 1467 1467 1466 1466 1465 1465 1465
1460 1460 1460 1460 1460 1460 1459 1459 1459 1458 1458 1458 1458 1458 1458 1458 1458 1458 1459 1459 1459 1459 1460 1461 1461 1462 1462 1463 1463 1464 1464 1464 1465 1465 1465 1465 1465 1465 1465 1464 1464 1463 1463 1462
1459 1459 1459 1459 1459 1459 1458 1458 1458 1457 1457 1457 1457 1457 1457 1457 1457 1457 1457 1457 1458 1458 1459 1459 1460 1461 1461 1461 1462 1462 1463 1463 1463 1464 1464 1464 1463 1463 1463 1462 1462 1461 1461 1460
1458 1458 1458 1458 1457 1457 1457 1457 1456 1456 1456 1456 1456 1456 1456 1456 1456 1456 1456 1456 1457 1457 1458 1458 1459 1459 1459 1460 1460 1460 1461 1461 1461 1462 1462 1461 1461 1461 1460 1460 1460 1459 1458 1458
1456 1456 1456 1456 1455 1455 1455 1455 1455 1455 1454 1454 1455 1455 1455 1455 1455 1455 1455 1455 1456 1456 1456 1456 1457 1457 1458 1458 1458 1458 1459 1459 1459 1460 1459 1459 1459 1458 1458 1458 1457 1457 1456 1456
1454 1454 1454 1454 1454 1453 1453 1453 1453 1453 1453 1453 1453 1453 1453 1453 1453 1453 1453 1454 1454 1454 1454 1454 1455 1455 1455 1456 1456 1456 1457 1457 1457 1457 1457 1457 1457 1456 1456 1455 1455 1454 1454 1453
1452 1452 1452 1452 1451 1451 1451 1451 1451 1451 1451 1451 1451 1451 1451 1451 1451 1452 1452 1452 1452 1452 1452 1452 1452 1453 1453 1453 1454 1454 1454 1455 1455 1455 1455 1454 1454 1454 1454 1453 1453 1452 1451 1451
1449 1449 1449 1449 1449 1448 1449 1448 1448 1449 1449 1449 1449 1449 1449 1450 1450 1449 1450 1450 1450 1450 1450 1450 1450 1450 1451 1451 1451 1451 1452 1452 1452 1452 1452 1452 1452 1452 1451 1451 1451 1450 1449 1448
1446 1446 1446 1446 1446 1446 1446 1446 1446 1446 1446 1446 1447 1447 1447 1447 1447 1447 1447 1447 1447 1447 1447 1447 1447 1448 1448 1448 1449 1449 1449 1449 1450 1450 1450 1449 1449 1449 1449 1449 1448 1448 1447 1447
1442 1443 1443 1443 1443 1443 1443 1443 1444 1444 1444 1444 1444 1444 1445 1445 1445 1445 1445 1444 1444 1445 1445 1445 1445 1445 1445 1446 1446 1446 1447 1447 1447 1447 1447 1447 1447 1447 1447 1447 1446 1446 1445 1444